McGuire AFB, NJ

4:53 AM EDT on July 26, 2017 (GMT -0400)
McGuire Air Force Base

Weather History for KWRI - October, 2012

Change the Weather History Date:

Friday, October 19, 2012

  Actual Average Record
Temperature  
Mean Temperature 68 °F -  
Max Temperature 72 °F 63 °F 85 °F (2016)
Min Temperature 62 °F 42 °F 27 °F (2015)
Cooling Degree Days 2    
Growing Degree Days 18 (Base 50)    
Moisture  
Dew Point 64 °F    
Average Humidity 93    
Maximum Humidity 100    
Minimum Humidity 78    
Precipitation  
Precipitation 0.83 in - - ()
Sea Level Pressure  
Sea Level Pressure 29.76 in    
Wind  
Wind Speed 10 mph (SSE)    
Max Wind Speed 15 mph    
Max Gust Speed 24 mph    
Visibility 8 miles    
Events Rain    
Averages and records for this station are not official NWS values.
T = Trace of Precipitation, MM = Missing Value Source: NWS Daily Summary

Daily Weather History Graph

Daily Weather History Graph

Search for Another Location

Airport or City:

Trip Planner

Search our weather history database for the weather conditions in past years. The results will help you decide how hot, cold, wet, or windy it might be!

Date:

Astronomy

Oct. 19, 2012 Rise Set
Actual Time 7:13 AM EDT 6:12 PM EDT
Civil Twilight 6:46 AM EDT 6:39 PM EDT
Nautical Twilight 6:14 AM EDT 7:11 PM EDT
Astronomical Twilight 5:43 AM EDT 7:42 PM EDT
Moon 11:54 AM EDT (10/19) 9:47 PM EDT (10/19)
Length of Visible Light 11h 53m
Length of Day
10h 58m
Waxing Crescent, 23% of the Moon is Illuminated
Oct 19
Waxing Crescent
Oct 21
First Quarter
Oct 29
Full
Nov 6
Last Quarter
Nov 13
New

Hourly Weather History & Observations

Time (EDT) Temp. Dew Point Humidity Pressure Visibility Wind Dir Wind Speed Gust Speed Precip Events Conditions
12:18 AM 64.4 °F 60.8 °F 88% 29.87 in 10.0 mi SSE 8.1 mph - N/A   Overcast
12:28 AM 66.2 °F 60.8 °F 83% 29.87 in 10.0 mi SSE 11.5 mph 16.1 mph N/A   Overcast
12:55 AM 65.8 °F 61.9 °F 87% 29.88 in 10.0 mi SSE 11.5 mph 17.3 mph N/A   Overcast
1:25 AM 66.2 °F 60.8 °F 83% 29.88 in 10.0 mi South 13.8 mph 20.7 mph N/A   Overcast
1:31 AM 66.2 °F 60.8 °F 83% 29.88 in 10.0 mi South 12.7 mph 24.2 mph N/A Rain Light Rain
1:32 AM 66.2 °F 60.8 °F 83% 29.88 in 10.0 mi South 11.5 mph 24.2 mph N/A Rain Light Rain
1:34 AM 66.2 °F 60.8 °F 83% 29.88 in 10.0 mi South 13.8 mph 24.2 mph N/A Rain Light Rain
1:55 AM 64.8 °F 59.5 °F 83% 29.87 in 10.0 mi South 11.5 mph 20.7 mph 0.00 in   Light Drizzle
2:27 AM 62.6 °F 59.0 °F 88% 29.85 in 10.0 mi SSE 10.4 mph - N/A   Light Drizzle
2:28 AM 62.6 °F 59.0 °F 88% 29.85 in 10.0 mi SSE 9.2 mph - N/A   Mostly Cloudy
2:43 AM 62.6 °F 59.0 °F 88% 29.84 in 10.0 mi SSE 10.4 mph - N/A   Overcast
2:49 AM 62.6 °F 60.8 °F 94% 29.84 in 10.0 mi South 9.2 mph - N/A   Overcast
2:55 AM 63.5 °F 60.3 °F 89% 29.84 in 10.0 mi South 9.2 mph - 0.00 in   Overcast
3:00 AM 64.4 °F 60.8 °F 88% 29.83 in 10.0 mi South 10.4 mph - N/A   Overcast
3:55 AM 63.9 °F 61.0 °F 90% 29.82 in 10.0 mi SSE 9.2 mph - N/A   Overcast
4:02 AM 64.4 °F 60.8 °F 88% 29.82 in 10.0 mi SSE 10.4 mph - N/A   Overcast
4:22 AM 64.4 °F 60.8 °F 88% 29.81 in 10.0 mi SSE 9.2 mph - N/A Rain Light Rain
4:24 AM 64.4 °F 60.8 °F 88% 29.82 in 10.0 mi SSE 8.1 mph - N/A Rain Light Rain
4:27 AM 64.4 °F 60.8 °F 88% 29.81 in 9.0 mi SSE 8.1 mph - N/A Rain Light Rain
4:30 AM 64.4 °F 60.8 °F 88% 29.81 in 5.0 mi SSE 9.2 mph - N/A Rain Light Rain
4:35 AM 62.6 °F 60.8 °F 94% 29.81 in 4.0 mi SE 9.2 mph - N/A Rain Light Rain
4:36 AM 62.6 °F 60.8 °F 94% 29.81 in 4.0 mi SE 10.4 mph - N/A Rain Light Rain
4:38 AM 62.6 °F 60.8 °F 94% 29.81 in 4.0 mi SE 8.1 mph - N/A Rain Light Rain
4:40 AM 62.6 °F 60.8 °F 94% 29.81 in 6.0 mi SE 9.2 mph - N/A Rain Light Rain
4:42 AM 62.6 °F 60.8 °F 94% 29.81 in 9.0 mi SE 8.1 mph - N/A   Overcast
4:47 AM 62.6 °F 62.6 °F 100% 29.81 in 10.0 mi SE 6.9 mph - N/A   Overcast
4:48 AM 62.6 °F 62.6 °F 100% 29.81 in 10.0 mi SE 8.1 mph - N/A   Overcast
4:51 AM 62.6 °F 62.6 °F 100% 29.81 in 10.0 mi SSE 6.9 mph - N/A   Overcast
4:54 AM 62.6 °F 62.6 °F 100% 29.81 in 10.0 mi SSE 9.2 mph - N/A   Overcast
4:55 AM 63.1 °F 61.7 °F 95% 29.81 in 10.0 mi SE 9.2 mph - 0.02 in   Overcast
5:00 AM 62.6 °F 62.6 °F 100% 29.81 in 10.0 mi SSE 9.2 mph - N/A   Overcast
5:07 AM 62.6 °F 62.6 °F 100% 29.81 in 10.0 mi SSE 9.2 mph - N/A   Overcast
5:14 AM 62.6 °F 62.6 °F 100% 29.81 in 10.0 mi SE 6.9 mph - N/A   Overcast
5:17 AM 62.6 °F 62.6 °F 100% 29.81 in 10.0 mi SE 8.1 mph - N/A   Overcast
5:21 AM 62.6 °F 62.6 °F 100% 29.81 in 10.0 mi SE 9.2 mph - N/A   Overcast
5:23 AM 62.6 °F 62.6 °F 100% 29.81 in 10.0 mi SSE 8.1 mph - N/A   Overcast
5:26 AM 62.6 °F 62.6 °F 100% 29.81 in 10.0 mi SE 6.9 mph - N/A   Mostly Cloudy
5:31 AM 62.6 °F 62.6 °F 100% 29.81 in 10.0 mi SSE 8.1 mph - N/A   Overcast
5:43 AM 62.6 °F 62.6 °F 100% 29.81 in 10.0 mi SSE 9.2 mph - N/A Rain Light Rain
5:46 AM 62.6 °F 62.6 °F 100% 29.81 in 5.0 mi SE 12.7 mph - N/A Rain Light Rain
5:47 AM 62.6 °F 62.6 °F 100% 29.81 in 4.0 mi SE 12.7 mph - N/A Rain Rain
5:48 AM 62.6 °F 62.6 °F 100% 29.81 in 3.0 mi SE 12.7 mph - N/A Rain Rain
5:49 AM 62.6 °F 62.6 °F 100% 29.81 in 3.0 mi SE 12.7 mph - N/A Rain Rain
5:51 AM 62.6 °F 62.6 °F 100% 29.81 in 2.5 mi SE 11.5 mph - N/A Rain Light Rain
5:53 AM 62.6 °F 62.6 °F 100% 29.81 in 2.5 mi SE 9.2 mph - N/A Rain Light Rain
5:55 AM 63.5 °F 62.4 °F 96% 29.80 in 2.5 mi SSE 11.5 mph - 0.03 in Rain Light Rain
5:56 AM 64.4 °F 62.6 °F 94% 29.80 in 3.0 mi SSE 10.4 mph - N/A Rain Light Rain
5:59 AM 64.4 °F 62.6 °F 94% 29.81 in 5.0 mi SE 9.2 mph - N/A Rain Light Rain
6:09 AM 64.4 °F 62.6 °F 94% 29.80 in 6.0 mi SE 10.4 mph - N/A Rain Light Rain
6:15 AM 64.4 °F 62.6 °F 94% 29.80 in 4.0 mi SSE 11.5 mph - N/A Rain Light Rain
6:16 AM 64.4 °F 62.6 °F 94% 29.80 in 4.0 mi SSE 12.7 mph - N/A Rain Light Rain
6:18 AM 64.4 °F 62.6 °F 94% 29.80 in 4.0 mi SSE 12.7 mph - N/A Rain Light Rain
6:19 AM 64.4 °F 62.6 °F 94% 29.80 in 4.0 mi SE 13.8 mph - N/A Rain Light Rain
6:27 AM 64.4 °F 62.6 °F 94% 29.80 in 6.0 mi SE 12.7 mph 19.6 mph N/A Rain Light Rain
6:38 AM 64.4 °F 62.6 °F 94% 29.79 in 9.0 mi SSE 10.4 mph 24.2 mph N/A   Overcast
6:44 AM 64.4 °F 62.6 °F 94% 29.80 in 10.0 mi SSE 10.4 mph - N/A   Overcast
6:55 AM 64.0 °F 62.8 °F 96% 29.79 in 10.0 mi SSE 10.4 mph - 0.05 in   Overcast
7:01 AM 64.4 °F 62.6 °F 94% 29.78 in 10.0 mi SSE 9.2 mph - N/A   Overcast
7:05 AM 64.4 °F 62.6 °F 94% 29.78 in 10.0 mi SSE 10.4 mph - N/A   Overcast
7:35 AM 64.4 °F 62.6 °F 94% 29.78 in 10.0 mi South 13.8 mph 19.6 mph N/A Rain Light Rain
7:36 AM 64.4 °F 62.6 °F 94% 29.78 in 10.0 mi South 11.5 mph 19.6 mph N/A Rain Light Rain
7:55 AM 64.6 °F 63.5 °F 96% 29.79 in 7.0 mi South 10.4 mph 19.6 mph 0.03 in Rain Light Rain
8:10 AM 64.4 °F 64.4 °F 100% 29.79 in 10.0 mi South 11.5 mph 19.6 mph N/A Rain Light Rain
8:40 AM 64.4 °F 64.4 °F 100% 29.79 in 10.0 mi South 12.7 mph 18.4 mph N/A   Overcast
8:46 AM 64.4 °F 64.4 °F 100% 29.78 in 10.0 mi South 12.7 mph 18.4 mph N/A Rain Light Rain
8:50 AM 64.4 °F 64.4 °F 100% 29.78 in 8.0 mi South 11.5 mph - N/A Rain Light Rain
8:55 AM 65.1 °F 64.0 °F 96% 29.79 in 8.0 mi South 10.4 mph - 0.02 in Rain Light Rain
9:00 AM 64.4 °F 64.4 °F 100% 29.79 in 10.0 mi South 11.5 mph - N/A Rain Light Rain
9:02 AM 64.4 °F 64.4 °F 100% 29.79 in 10.0 mi South 12.7 mph - N/A   Overcast
9:06 AM 64.4 °F 64.4 °F 100% 29.79 in 10.0 mi South 10.4 mph - N/A   Overcast
9:07 AM 64.4 °F 64.4 °F 100% 29.79 in 10.0 mi South 10.4 mph - N/A   Overcast
9:13 AM 64.4 °F 64.4 °F 100% 29.79 in 10.0 mi South 11.5 mph 18.4 mph N/A   Overcast
9:17 AM 66.2 °F 64.4 °F 94% 29.78 in 10.0 mi South 10.4 mph 18.4 mph N/A   Overcast
9:51 AM 66.2 °F 64.4 °F 94% 29.78 in 10.0 mi South 9.2 mph - N/A Rain Light Rain
9:55 AM 65.5 °F 64.4 °F 96% 29.78 in 6.0 mi South 6.9 mph - 0.09 in Rain Heavy Rain
10:28 AM 66.2 °F 64.4 °F 94% 29.77 in 10.0 mi SSE 13.8 mph 20.7 mph N/A Rain Light Rain
10:36 AM 66.2 °F 64.4 °F 94% 29.77 in 10.0 mi South 9.2 mph - N/A Rain Light Rain
10:45 AM 66.2 °F 64.4 °F 94% 29.77 in 7.0 mi South 10.4 mph - N/A Rain Rain
10:52 AM 66.2 °F 64.4 °F 94% 29.76 in 2.5 mi South 10.4 mph - N/A Rain Heavy Rain
10:53 AM 66.2 °F 64.4 °F 94% 29.76 in 2.5 mi South 10.4 mph - N/A Rain Heavy Rain
10:55 AM 65.8 °F 64.8 °F 96% 29.76 in 2.5 mi South 6.9 mph - 0.18 in Rain Rain
11:01 AM 66.2 °F 64.4 °F 94% 29.76 in 3.0 mi South 8.1 mph - N/A Rain Light Rain
11:11 AM 66.2 °F 64.4 °F 94% 29.75 in 10.0 mi South 8.1 mph - N/A Rain Light Rain
11:14 AM 66.2 °F 64.4 °F 94% 29.75 in 10.0 mi South 8.1 mph - N/A Rain Light Rain
11:30 AM 66.2 °F 64.4 °F 94% 29.76 in 5.0 mi South 8.1 mph - N/A Rain Rain
11:32 AM 66.2 °F 64.4 °F 94% 29.76 in 4.0 mi South 10.4 mph - N/A Rain Rain
11:36 AM 66.2 °F 64.4 °F 94% 29.76 in 2.5 mi South 11.5 mph - N/A Rain Heavy Rain
11:38 AM 66.2 °F 64.4 °F 94% 29.75 in 1.8 mi SSW 10.4 mph - N/A Rain Heavy Rain
11:39 AM 66.2 °F 64.4 °F 94% 29.75 in 1.5 mi South 9.2 mph - N/A Rain Heavy Rain
11:40 AM 66.2 °F 64.4 °F 94% 29.75 in 1.2 mi South 10.4 mph - N/A Rain Heavy Rain
11:41 AM 66.2 °F 64.4 °F 94% 29.75 in 1.0 mi South 11.5 mph - N/A Rain Heavy Rain
11:43 AM 66.2 °F 64.4 °F 94% 29.75 in 0.8 mi South 11.5 mph 19.6 mph N/A Rain Heavy Rain
11:46 AM 66.2 °F 66.2 °F 100% 29.75 in 0.8 mi South 15.0 mph 20.7 mph N/A Rain Heavy Rain
11:47 AM 66.2 °F 66.2 °F 100% 29.75 in 0.8 mi South 12.7 mph 20.7 mph N/A Rain Light Rain
11:49 AM 66.2 °F 66.2 °F 100% 29.75 in 1.0 mi South 11.5 mph 20.7 mph N/A Rain Light Rain
11:51 AM 66.2 °F 66.2 °F 100% 29.75 in 1.2 mi South 11.5 mph 20.7 mph N/A Rain Light Rain
11:52 AM 66.2 °F 66.2 °F 100% 29.76 in 1.5 mi South 11.5 mph 20.7 mph N/A Rain Light Rain
11:54 AM 66.2 °F 66.2 °F 100% 29.75 in 2.0 mi South 11.5 mph 20.7 mph N/A Rain Light Rain
11:55 AM 66.4 °F 65.5 °F 97% 29.75 in 2.5 mi South 11.5 mph 20.7 mph 0.38 in Rain Light Rain
11:57 AM 66.2 °F 66.2 °F 100% 29.75 in 3.0 mi South 10.4 mph - N/A Rain Light Rain
12:17 PM 68.0 °F 66.2 °F 94% 29.74 in 7.0 mi South 12.7 mph - N/A Rain Light Rain
12:20 PM 68.0 °F 66.2 °F 94% 29.74 in 10.0 mi South 10.4 mph - N/A   Mostly Cloudy
12:22 PM 68.0 °F 66.2 °F 94% 29.74 in 10.0 mi South 10.4 mph - N/A   Mostly Cloudy
12:27 PM 68.0 °F 66.2 °F 94% 29.74 in 10.0 mi South 9.2 mph - N/A   Overcast
12:33 PM 68.0 °F 66.2 °F 94% 29.74 in 10.0 mi South 8.1 mph - N/A   Mostly Cloudy
12:39 PM 68.0 °F 66.2 °F 94% 29.74 in 10.0 mi South 8.1 mph - N/A   Overcast
12:41 PM 68.0 °F 66.2 °F 94% 29.74 in 10.0 mi South 8.1 mph - N/A   Mostly Cloudy
12:42 PM 68.0 °F 66.2 °F 94% 29.74 in 10.0 mi South 8.1 mph - N/A   Mostly Cloudy
12:46 PM 68.0 °F 66.2 °F 94% 29.74 in 10.0 mi South 6.9 mph - N/A   Overcast
12:48 PM 68.0 °F 66.2 °F 94% 29.73 in 10.0 mi South 6.9 mph - N/A   Overcast
12:50 PM 68.0 °F 66.2 °F 94% 29.73 in 10.0 mi South 8.1 mph - N/A   Overcast
12:55 PM 68.2 °F 65.8 °F 92% 29.73 in 10.0 mi South 8.1 mph - 0.03 in   Overcast
12:56 PM 68.0 °F 66.2 °F 94% 29.73 in 10.0 mi South 8.1 mph - N/A   Overcast
12:58 PM 68.0 °F 66.2 °F 94% 29.73 in 10.0 mi SSE 8.1 mph - N/A   Overcast
1:05 PM 68.0 °F 66.2 °F 94% 29.73 in 10.0 mi South 6.9 mph - N/A   Overcast
1:39 PM 69.8 °F 66.2 °F 88% 29.72 in 10.0 mi South 9.2 mph 17.3 mph N/A   Mostly Cloudy
1:55 PM 70.2 °F 65.5 °F 85% 29.71 in 10.0 mi South 10.4 mph - N/A   Mostly Cloudy
1:57 PM 69.8 °F 66.2 °F 88% 29.71 in 10.0 mi South 8.1 mph - N/A Rain Light Rain
2:03 PM 69.8 °F 66.2 °F 88% 29.70 in 10.0 mi SSE 10.4 mph 17.3 mph N/A Rain Light Rain
2:07 PM 69.8 °F 66.2 °F 88% 29.70 in 10.0 mi South 10.4 mph - N/A   Mostly Cloudy
2:09 PM 69.8 °F 66.2 °F 88% 29.70 in 10.0 mi SSE 10.4 mph - N/A   Mostly Cloudy
2:32 PM 71.6 °F 66.2 °F 83% 29.70 in 10.0 mi SSE 10.4 mph - N/A   Mostly Cloudy
2:34 PM 71.6 °F 66.2 °F 83% 29.70 in 10.0 mi South 10.4 mph - N/A   Mostly Cloudy
2:41 PM 71.6 °F 66.2 °F 83% 29.69 in 10.0 mi South 12.7 mph 20.7 mph N/A   Mostly Cloudy
2:55 PM 71.6 °F 66.0 °F 82% 29.69 in 10.0 mi South 9.2 mph - 0.00 in   Mostly Cloudy
3:12 PM 71.6 °F 66.2 °F 83% 29.69 in 10.0 mi South 10.4 mph - N/A   Mostly Cloudy
3:18 PM 71.6 °F 66.2 °F 83% 29.69 in 10.0 mi SSE 13.8 mph 17.3 mph N/A   Mostly Cloudy
3:19 PM 71.6 °F 66.2 °F 83% 29.69 in 10.0 mi South 12.7 mph 17.3 mph N/A   Mostly Cloudy
3:20 PM 71.6 °F 66.2 °F 83% 29.69 in 10.0 mi South 11.5 mph - N/A   Mostly Cloudy
3:34 PM 71.6 °F 66.2 °F 83% 29.68 in 10.0 mi South 10.4 mph - N/A   Mostly Cloudy
3:55 PM 72.0 °F 65.8 °F 81% 29.67 in 10.0 mi South 8.1 mph - N/A   Partly Cloudy
4:16 PM 73.4 °F 66.2 °F 78% 29.66 in 10.0 mi SSE 6.9 mph - N/A   Mostly Cloudy
4:28 PM 71.6 °F 66.2 °F 83% 29.66 in 10.0 mi SSE 10.4 mph - N/A   Mostly Cloudy
4:34 PM 71.6 °F 66.2 °F 83% 29.66 in 10.0 mi SSE 9.2 mph - N/A   Mostly Cloudy
4:44 PM 71.6 °F 66.2 °F 83% 29.65 in 10.0 mi SSE 6.9 mph - N/A   Mostly Cloudy
4:47 PM 71.6 °F 66.2 °F 83% 29.65 in 10.0 mi South 8.1 mph - N/A   Scattered Clouds
4:55 PM 71.4 °F 66.0 °F 83% 29.66 in 10.0 mi SSE 8.1 mph - N/A   Scattered Clouds
5:03 PM 71.6 °F 66.2 °F 83% 29.66 in 10.0 mi SSE 8.1 mph - N/A   Mostly Cloudy
5:07 PM 71.6 °F 66.2 °F 83% 29.66 in 10.0 mi SSE 10.4 mph - N/A   Scattered Clouds
5:23 PM 71.6 °F 64.4 °F 78% 29.66 in 10.0 mi SSE 10.4 mph - N/A   Mostly Cloudy
5:42 PM 71.6 °F 66.2 °F 83% 29.65 in 10.0 mi SSE 8.1 mph - N/A   Scattered Clouds
5:55 PM 70.0 °F 65.7 °F 86% 29.65 in 10.0 mi SSE 8.1 mph - N/A   Mostly Cloudy
6:55 PM 67.1 °F 65.1 °F 93% 29.65 in 10.0 mi SSE 5.8 mph - N/A   Clear
7:55 PM 65.8 °F 64.4 °F 95% 29.65 in 10.0 mi South 6.9 mph - N/A   Mostly Cloudy
8:55 PM 65.3 °F 63.5 °F 94% 29.64 in 10.0 mi South 8.1 mph - N/A   Partly Cloudy
9:44 PM 64.4 °F 64.4 °F 100% 29.65 in 10.0 mi SSW 8.1 mph - N/A   Partly Cloudy
9:54 PM 64.4 °F 64.4 °F 100% 29.66 in 10.0 mi SSW 9.2 mph - N/A   Mostly Cloudy
9:55 PM 65.3 °F 64.0 °F 96% 29.66 in 10.0 mi SSW 9.2 mph - N/A   Mostly Cloudy
10:28 PM 66.2 °F 64.4 °F 94% 29.66 in 10.0 mi South 9.2 mph - N/A   Scattered Clouds
10:55 PM 64.9 °F 63.7 °F 96% 29.67 in 10.0 mi SSW 9.2 mph - N/A   Clear
11:55 PM 64.4 °F 63.9 °F 98% 29.68 in 10.0 mi South 8.1 mph - N/A   Clear